Location: Palomar Mountain Lodge
(33.3110°N, 116.8495°W)
Time: 10:34:08
(UTC-07:00)

Cosmos 1536 - Pass Details

Date: 19 May 2017
Orbit: 541 x 561 km, 82.5° (Epoch: 23 September)

Event Time Altitude Azimuth Distance (km) Brightness Sun altitude
Rises 20:37:07 0° 346° (NNW) 2,702 7.1 -10.6°
Reaches altitude 10° 20:39:20 10° 340° (NNW) 1,805 6.3 -11.0°
Maximum altitude 20:43:07 45° 267° (W) 739 3.9 -11.7°
Drops below altitude 10° 20:46:53 10° 194° (SSW) 1,792 5.2 -12.3°
Enters shadow 20:49:33 -2° 187° (S) 2,870 6.2 -12.8°
